Starlink 11088

operational
NORAD ID: 59709 Int'l Des: 2024-088 Owner: SPXS Country: US Constellation: starlink
LEOCIRCULAR

Über Starlink 11088

Beschreibung wird geladen...

Live-Position

3D-Globus wird geladen...

Nächste Überflüge

Höhenverlauf

Altitude vs Time

uPlot chart will show altitude changes over time

Zweizeiliger Elementsatz

1 59709U 24088B 25308.48760717 -.00029150 00000-0 -23689-3 0 9990
2 59709 53.1594 223.7800 0001897 106.8012 253.3214 15.69676499 86606
Epoch: 4. Nov. 2025 • Age: 21 hours

Aktueller Status

Höhe 359.7 km
Geschwindigkeit 7.70 km/s
Subsatellitenpunkt 21.85°N, 145.85°W
Startdatum 10. Mai 2024
Alter 1.4 years
Typ internet

Technische Details

Klassifizierung Payload
Masse 960.00 kg
Trockenmasse 910.00 kg
Gesamtmasse 960.00 kg
Länge 0.30 m
Durchmesser 4.10 m
Spannweite 29.00 m
Form Box + pan
Hersteller SPXS
Bus-Typ Starlink V2MD
Phasenstatus In Orbit
Besitzer/Staat SPXS/US

Große Konstellationen

Loading constellations...